Starlink 31166

operational
NORAD ID: 58789 Int'l Des: 2024-012 Owner: SPXS Country: US Constellation: starlink
LEOCIRCULAR

Starlink 31166について

説明を読み込み中...

リアルタイム位置

3D地球を読み込み中...

次回通過

高度履歴

Altitude vs Time

uPlot chart will show altitude changes over time

軌道要素

1 58789U 24012C 25304.00201350 .00000271 00000-0 19358-4 0 9991
2 58789 43.0008 177.5011 0001436 276.5084 83.5604 15.27581522101402
Epoch: Oct 31, 2025 • Age: 18 hours

現在のステータス

高度 485.9 km
速度 7.62 km/s
衛星直下点 -15.39°S, 57.09°E
打ち上げ日 Jan 15, 2024
運用期間 1.7 years
タイプ internet

技術仕様

分類 Payload
質量 730.00 kg
乾燥質量 700.00 kg
総質量 730.00 kg
長さ 0.30 m
直径 4.10 m
スパン 29.00 m
形状 Box + pan
製造者 SPXS
バスタイプ Starlink V2M
フェーズステータス In Orbit
所有者/国 SPXS/US

大規模コンステレーション

Loading constellations...